Terminal Aerodrome Forecast
Issued by NWS Central Illinois

Home | Current Version | Previous Version | Text Only | Print | Product List | Glossary On
Versions: 1 2 3 4 5 6 7 8 9 10 11 12 13 14 15 16 17
000
FTUS43 KILX 251700
TAFSPI
TAF
KSPI 251728Z 2518/2618 03015G25KT 4SM -RA BR BKN025 OVC035
     FM252100 02020G28KT 2SM -RASN BR OVC006
     FM260000 36015G25KT P6SM OVC015
     FM260600 34008KT P6SM BKN015
     FM261300 26005KT P6SM SCT050 BKN100=

USA.gov is the U.S. government's official web portal to all federal, state and local government web resources and services.